Погода в Ликине

Россия / Владимирская область     55°56′30″N   41°04′52″E
темп.,
°C
ветер,
м/с
пор.,
м/с
влажн.,
%
обл.,
%
осадки,
мм/ч
давл.,
гПа
погр.,
м
10 апреля, сб
сб1000:00−3ю11930 0.0 102711
03:00−3ююв23930 0.0 102838
06:00−4ююв25920 0.0 102968
09:00+5ю35700 0.0 1028358
12:00+8ююз35515 0.0 10271531
15:00+9ю23475 0.0 10261763
18:00+6юв25785 0.0 102682
21:000ююв28884 0.0 1027112
11 апреля, вс
вс1100:00−1ю26940 0.0 102782
03:00−2ю24930 0.0 102860
06:00−1ююз25880 0.0 102976
09:00+7юз24610 0.0 1029282
12:00+11зюз23530 0.0 1030836
15:00+13зюз12500 0.0 1030952
18:00+10ююв116836 0.0 103110
21:00+5юв227832 0.0 103311
12 апреля, пн
пн1200:00+4юв2281100 0.0 103313
03:00+3в2284100 0.0 103422
06:00+2в2785100 0.0 1034121
09:00+8в4859100 0.0 1034384
12:00+10в5849100 0.0 1033570
15:00+12в4769100 0.0 1031587
18:00+10в4985100 0.0 1030478
21:00+8в31095100 0.0 1030284
13 апреля, вт
вт1300:00+7вюв3109798 0.0 1029222
03:00+7юв3896100 0.0 1028167
06:00+7юв31092100 0.0 1028177
09:00+13ююв496583 0.0 1027358
12:00+18ю57435 0.0 10261014
15:00+19ю463255 0.0 10251737
18:00+16ююв244856 0.0 102478
21:00+11ююв366444 0.0 102595
14 апреля, ср
ср1400:00+9ююв377055 0.0 1025101
03:00+8ююв24745 0.0 102568
06:00+8ююв25775 0.0 102586
09:00+14ююв365465 0.0 1024336
12:00+19ююв4638100 0.0 10231039
15:00+19ююв4734100 0.0 10221513
18:00+17юв484461 0.0 1021327
21:00+12юв31163100 0.0 1021240